Meteo orario Aaruti

Oggi, 20 Giugno, Domenica

Tempo Temperatura Precipitazioni Vento Pressione Umidità
00:00 +22°C° 0.1 mm 1 m/s 715 mm Hg 88%
01:00 +21°C° 0 mm 1 m/s 715 mm Hg 88%
02:00 +20°C° 0.5 mm 1 m/s 715 mm Hg 89%
03:00 +19°C° 0.5 mm 2 m/s 716 mm Hg 90%
04:00 +18°C° 0.5 mm 2 m/s 716 mm Hg 92%
05:00 +20°C° 0.2 mm 1 m/s 716 mm Hg 91%
06:00 +20°C° 0.2 mm 1 m/s 716 mm Hg 90%
07:00 +19°C° 0.2 mm 0 m/s 716 mm Hg 89%
08:00 +20°C° 0.1 mm 0 m/s 717 mm Hg 80%
09:00 +22°C° 0.1 mm 0 m/s 717 mm Hg 72%
10:00 +24°C° 0.1 mm 0 m/s 717 mm Hg 63%
11:00 +27°C° 0.1 mm 2 m/s 716 mm Hg 57%
12:00 +28°C° 0.1 mm 3 m/s 715 mm Hg 52%
13:00 +29°C° 0.1 mm 4 m/s 714 mm Hg 47%
14:00 +29°C° 0 mm 4 m/s 713 mm Hg 51%
15:00 +28°C° 0 mm 4 m/s 712 mm Hg 55%
16:00 +28°C° 0 mm 5 m/s 711 mm Hg 59%
17:00 +25°C° 5.7 mm 4 m/s 711 mm Hg 71%
18:00 +21°C° 5.7 mm 3 m/s 711 mm Hg 83%
19:00 +17°C° 5.7 mm 2 m/s 711 mm Hg 95%
20:00 +17°C° 0.2 mm 2 m/s 712 mm Hg 96%
21:00 +18°C° 0.2 mm 1 m/s 712 mm Hg 96%
22:00 +16°C° 0.2 mm 1 m/s 713 mm Hg 96%
23:00 +16°C° 0 mm 1 m/s 713 mm Hg 97%

Domani, 21 Giugno, Lunedi

Tempo Temperatura Precipitazioni Vento Pressione Umidità
00:00 +16°C° 0 mm 1 m/s 713 mm Hg 97%
01:00 +16°C° 0 mm 1 m/s 713 mm Hg 97%
02:00 +16°C° 0 mm 1 m/s 713 mm Hg 97%
03:00 +15°C° 0 mm 0 m/s 714 mm Hg 97%
04:00 +15°C° 0 mm 0 m/s 714 mm Hg 97%
05:00 +16°C° 0 mm 0 m/s 714 mm Hg 96%
06:00 +16°C° 0 mm 0 m/s 714 mm Hg 96%
07:00 +16°C° 0 mm 0 m/s 714 mm Hg 95%
08:00 +18°C° 0 mm 0 m/s 714 mm Hg 86%
09:00 +20°C° 0 mm 0 m/s 714 mm Hg 76%
10:00 +24°C° 0 mm 1 m/s 714 mm Hg 67%
11:00 +25°C° 0 mm 1 m/s 714 mm Hg 59%
12:00 +27°C° 0 mm 1 m/s 714 mm Hg 52%
13:00 +28°C° 0 mm 1 m/s 714 mm Hg 45%
14:00 +28°C° 0.1 mm 1 m/s 714 mm Hg 47%
15:00 +28°C° 0.1 mm 1 m/s 713 mm Hg 48%
16:00 +28°C° 0.1 mm 1 m/s 713 mm Hg 49%
17:00 +25°C° 1.1 mm 1 m/s 713 mm Hg 63%
18:00 +23°C° 1.1 mm 2 m/s 713 mm Hg 78%
19:00 +19°C° 1.1 mm 2 m/s 713 mm Hg 92%
20:00 +20°C° 0.5 mm 1 m/s 714 mm Hg 93%
21:00 +19°C° 0.5 mm 1 m/s 714 mm Hg 94%
22:00 +18°C° 0.5 mm 1 m/s 714 mm Hg 96%
23:00 +16°C° 1 mm 0 m/s 714 mm Hg 96%

Dopodomani, 22 Giugno, Martedi

Tempo Temperatura Precipitazioni Vento Pressione Umidità
00:00 +15°C° 1 mm 0 m/s 715 mm Hg 97%
01:00 +15°C° 1 mm 0 m/s 715 mm Hg 98%
02:00 +16°C° 0.5 mm 1 m/s 715 mm Hg 98%
03:00 +16°C° 0.5 mm 1 m/s 715 mm Hg 98%
04:00 +16°C° 0.5 mm 1 m/s 715 mm Hg 98%
05:00 +18°C° 0.2 mm 1 m/s 715 mm Hg 97%
06:00 +18°C° 0.2 mm 1 m/s 715 mm Hg 96%
07:00 +17°C° 0.2 mm 0 m/s 715 mm Hg 95%
08:00 +20°C° 0.1 mm 1 m/s 715 mm Hg 91%
09:00 +21°C° 0.1 mm 1 m/s 715 mm Hg 86%
10:00 +22°C° 0.1 mm 1 m/s 715 mm Hg 81%
11:00 +23°C° 0.5 mm 1 m/s 715 mm Hg 77%
12:00 +24°C° 0.5 mm 1 m/s 715 mm Hg 73%
13:00 +25°C° 0.5 mm 1 m/s 715 mm Hg 68%
14:00 +24°C° 1.5 mm 2 m/s 715 mm Hg 72%
15:00 +22°C° 1.5 mm 3 m/s 715 mm Hg 76%
16:00 +21°C° 1.5 mm 4 m/s 716 mm Hg 79%
17:00 +21°C° 0.2 mm 3 m/s 716 mm Hg 80%
18:00 +20°C° 0.2 mm 2 m/s 716 mm Hg 81%
19:00 +21°C° 0.2 mm 1 m/s 717 mm Hg 81%
20:00 +20°C° 0.3 mm 1 m/s 717 mm Hg 85%
21:00 +18°C° 0.3 mm 1 m/s 717 mm Hg 90%
22:00 +16°C° 0.3 mm 1 m/s 718 mm Hg 94%
23:00 +16°C° 0.1 mm 1 m/s 718 mm Hg 94%

23 Giugno, Mercoledi

Tempo Temperatura Precipitazioni Vento Pressione Umidità
00:00 +15°C° 0.1 mm 0 m/s 718 mm Hg 94%
01:00 +15°C° 0.1 mm 0 m/s 718 mm Hg 94%
02:00 +15°C° 0 mm 0 m/s 718 mm Hg 94%
03:00 +15°C° 0 mm 0 m/s 718 mm Hg 94%
04:00 +15°C° 0 mm 0 m/s 718 mm Hg 95%
05:00 +15°C° 0 mm 0 m/s 718 mm Hg 94%
06:00 +16°C° 0 mm 0 m/s 718 mm Hg 93%
07:00 +16°C° 0 mm 0 m/s 718 mm Hg 92%
08:00 +17°C° 0 mm 0 m/s 718 mm Hg 86%
09:00 +20°C° 0 mm 1 m/s 719 mm Hg 80%
10:00 +22°C° 0 mm 1 m/s 719 mm Hg 74%
11:00 +23°C° 0.2 mm 1 m/s 719 mm Hg 70%
12:00 +24°C° 0.2 mm 1 m/s 719 mm Hg 66%
13:00 +25°C° 0.2 mm 1 m/s 718 mm Hg 62%
14:00 +24°C° 1.1 mm 1 m/s 718 mm Hg 71%
15:00 +23°C° 1.1 mm 1 m/s 718 mm Hg 79%
16:00 +22°C° 1.1 mm 1 m/s 718 mm Hg 87%
17:00 +21°C° 2.7 mm 1 m/s 718 mm Hg 89%
18:00 +19°C° 2.7 mm 2 m/s 718 mm Hg 91%
19:00 +18°C° 2.7 mm 2 m/s 718 mm Hg 93%
20:00 +18°C° 3 mm 1 m/s 719 mm Hg 94%
21:00 +18°C° 3 mm 1 m/s 719 mm Hg 96%
22:00 +16°C° 3 mm 1 m/s 720 mm Hg 98%
23:00 +14°C° 0.1 mm 0 m/s 720 mm Hg 98%

24 Giugno, Giovedi

Tempo Temperatura Precipitazioni Vento Pressione Umidità
00:00 +14°C° 0.1 mm 0 m/s 720 mm Hg 97%
01:00 +13°C° 0.1 mm 0 m/s 720 mm Hg 97%
02:00 +13°C° 0.1 mm 0 m/s 720 mm Hg 97%
03:00 +13°C° 0.1 mm 0 m/s 720 mm Hg 97%
04:00 +13°C° 0.1 mm 0 m/s 720 mm Hg 97%
05:00 +14°C° 0.1 mm 0 m/s 720 mm Hg 97%
06:00 +14°C° 0.1 mm 0 m/s 720 mm Hg 96%
07:00 +15°C° 0.1 mm 0 m/s 720 mm Hg 95%
08:00 +16°C° 0 mm 0 m/s 720 mm Hg 91%
09:00 +17°C° 0 mm 0 m/s 721 mm Hg 87%
10:00 +17°C° 0 mm 0 m/s 721 mm Hg 84%
11:00 +21°C° 0.3 mm 1 m/s 721 mm Hg 79%
12:00 +22°C° 0.3 mm 1 m/s 721 mm Hg 74%
13:00 +23°C° 0.3 mm 2 m/s 720 mm Hg 68%
14:00 +23°C° 0.6 mm 2 m/s 720 mm Hg 70%
15:00 +21°C° 0.6 mm 2 m/s 720 mm Hg 72%
16:00 +21°C° 0.6 mm 2 m/s 720 mm Hg 73%
17:00 +20°C° 3.3 mm 2 m/s 720 mm Hg 81%
18:00 +18°C° 3.3 mm 2 m/s 720 mm Hg 88%
19:00 +16°C° 3.3 mm 2 m/s 720 mm Hg 96%
20:00 +16°C° 3.8 mm 2 m/s 721 mm Hg 97%
21:00 +15°C° 3.8 mm 2 m/s 721 mm Hg 97%
22:00 +15°C° 3.8 mm 2 m/s 722 mm Hg 98%
23:00 +14°C° 0.4 mm 1 m/s 722 mm Hg 97%

25 Giugno, Venerdi

Tempo Temperatura Precipitazioni Vento Pressione Umidità
00:00 +14°C° 0.4 mm 1 m/s 721 mm Hg 97%
01:00 +14°C° 0.4 mm 1 m/s 721 mm Hg 97%
02:00 +14°C° 0.3 mm 1 m/s 721 mm Hg 97%
03:00 +14°C° 0.3 mm 1 m/s 721 mm Hg 97%
04:00 +13°C° 0.3 mm 1 m/s 721 mm Hg 97%
05:00 +14°C° 0.6 mm 1 m/s 721 mm Hg 96%
06:00 +14°C° 0.6 mm 1 m/s 722 mm Hg 96%
07:00 +14°C° 0.6 mm 1 m/s 722 mm Hg 95%
08:00 +15°C° 0.2 mm 1 m/s 722 mm Hg 91%
09:00 +16°C° 0.2 mm 1 m/s 722 mm Hg 88%
10:00 +18°C° 0.2 mm 1 m/s 722 mm Hg 84%
11:00 +19°C° 0.5 mm 1 m/s 722 mm Hg 78%
12:00 +20°C° 0.5 mm 1 m/s 722 mm Hg 72%
13:00 +21°C° 0.5 mm 1 m/s 722 mm Hg 67%
14:00 +22°C° 0.4 mm 1 m/s 722 mm Hg 66%
15:00 +22°C° 0.4 mm 1 m/s 722 mm Hg 66%
16:00 +22°C° 0.4 mm 1 m/s 722 mm Hg 66%
17:00 +21°C° 0.3 mm 1 m/s 721 mm Hg 73%
18:00 +20°C° 0.3 mm 1 m/s 721 mm Hg 80%
19:00 +19°C° 0.3 mm 1 m/s 721 mm Hg 87%
20:00 +18°C° 0 mm 1 m/s 721 mm Hg 89%
21:00 +16°C° 0 mm 1 m/s 721 mm Hg 92%
22:00 +14°C° 0 mm 1 m/s 721 mm Hg 94%
23:00 +14°C° 0 mm 1 m/s 721 mm Hg 95%
Mostrare altro

Abbiamo bisogno del tuo consenso

Meteoprog e i nostri fornitori di servizi possono memorizzare e accedere a dati personali come cookie, identificatori di dispositivi o altre tecnologie simili sul tuo dispositivo e possono elaborare tali dati per personalizzare i contenuti e gli annunci, nonché fornire funzionalità dei social media e analizzarne il traffico.

  • Archiviare e/o accedere alle informazioni sul tuo dispositivo

    Cookie, identificatori di dispositivi o altre informazioni possono essere memorizzati o resi accessibili sul tuo dispositivo per le finalità sopra indicate.

  • Annunci e contenuti personalizzati, misurazione di annunci e contenuti, approfondimenti sul pubblico e sviluppo di prodotti

    Gli annunci e i contenuti possono essere personalizzati in base a un profilo. È possibile aggiungere più dati per personalizzare meglio annunci e contenuti. È possibile misurare il rendimento degli annunci e dei contenuti. È possibile ricavare informazioni sul pubblico che ha visto gli annunci e i contenuti. Tali dati possono essere utilizzati per sviluppare o migliorare l'esperienza, i sistemi e il software dell'utente.

Cliccando su “Accetto”, acconsenti all'uso di cookie, identificatori di dispositivo, web beacon o altre tecnologie simili. Puoi modificare le impostazioni nel browser del tuo dispositivo.

Per determinati scopi, è possibile fare affidamento su interessi legali, piuttosto che sul consenso. Puoi approfondire questo argomento consultando la nostra Informativa sulla privacy e sui cookie.